Change the Weather History Date:

Tuesday, June 18, 2013

  Actual Average Record
Temperature  
Mean Temperature 70 °F -  
Max Temperature 90 °F 88 °F 97 °F (1989)
Min Temperature 51 °F 47 °F 30 °F (1998)
Cooling Degree Days 6    
Growing Degree Days 20 (Base 50)    
Moisture  
Dew Point 30 °F    
Average Humidity 29    
Maximum Humidity 64    
Minimum Humidity 5    
Precipitation  
Precipitation 0.00 in - - ()
Sea Level Pressure  
Sea Level Pressure 30.16 in    
Wind  
Wind Speed 8 mph (South)    
Max Wind Speed 21 mph    
Max Gust Speed 28 mph    
Visibility 10 miles    
Events      
Averages and records for this station are not official NWS values.
T = Trace of Precipitation, MM = Missing Value Source: NWS Daily Summary

Daily Weather History Graph

Daily Weather History Graph

Search for Another Location

Airport or City:

Trip Planner

Search our weather history database for the weather conditions in past years. The results will help you decide how hot, cold, wet, or windy it might be!

Date:

Astronomy

Jun. 18, 2013 Rise Set
Actual Time 5:57 AM MDT 8:28 PM MDT
Civil Twilight 5:27 AM MDT 8:58 PM MDT
Nautical Twilight 4:50 AM MDT 9:35 PM MDT
Astronomical Twilight 4:09 AM MDT 10:16 PM MDT
Moon 3:24 PM MDT (6/18) 1:57 AM MDT (6/18)
Length of Visible Light 15h 31m
Length of Day
14h 31m
Waxing Gibbous, 71% of the Moon is Illuminated
Jun 18
Waxing Gibbous
Jun 23
Full
Jun 29
Last Quarter
Jul 8
New
Jul 15
First Quarter

Hourly Weather History & Observations

Time (MDT) Temp. Dew Point Humidity Pressure Visibility Wind Dir Wind Speed Gust Speed Precip Events Conditions
12:15 AM 61.9 °F 22.8 °F 22% 30.18 in 10.0 mi Calm Calm - N/A   Clear
12:35 AM 62.1 °F 22.6 °F 22% 30.18 in 10.0 mi Calm Calm - N/A   Clear
12:55 AM 58.8 °F 22.6 °F 25% 30.18 in 10.0 mi Calm Calm - N/A   Clear
1:15 AM 61.3 °F 21.0 °F 21% 30.18 in 10.0 mi Calm Calm - N/A   Clear
1:35 AM 59.7 °F 21.4 °F 23% 30.19 in 10.0 mi Calm Calm - N/A   Clear
1:55 AM 52.7 °F 21.0 °F 29% 30.19 in 10.0 mi NNW 4.6 mph - N/A   Clear
2:15 AM 54.5 °F 21.6 °F 28% 30.20 in 10.0 mi Calm Calm - N/A   Clear
2:35 AM 51.3 °F 21.4 °F 31% 30.20 in 10.0 mi South 3.5 mph - N/A   Clear
2:55 AM 53.4 °F 23.5 °F 31% 30.20 in 10.0 mi SSE 4.6 mph - N/A   Clear
3:15 AM 56.7 °F 25.5 °F 30% 30.20 in 10.0 mi Calm Calm - N/A   Clear
3:35 AM 62.1 °F 39.9 °F 44% 30.20 in 10.0 mi SSE 8.1 mph - N/A   Clear
3:55 AM 63.7 °F 42.4 °F 46% 30.20 in 10.0 mi SSE 11.5 mph - N/A   Clear
4:15 AM 63.0 °F 44.8 °F 51% 30.20 in 10.0 mi South 10.4 mph - N/A   Clear
4:35 AM 62.8 °F 45.9 °F 54% 30.20 in 10.0 mi South 8.1 mph - N/A   Clear
4:55 AM 62.6 °F 46.4 °F 55% 30.20 in 10.0 mi South 9.2 mph - N/A   Clear
5:15 AM 62.2 °F 46.6 °F 57% 30.21 in 10.0 mi SSE 9.2 mph - N/A   Clear
5:35 AM 61.9 °F 47.3 °F 59% 30.22 in 10.0 mi SSE 13.8 mph 19.6 mph N/A   Clear
5:55 AM 61.2 °F 47.5 °F 61% 30.23 in 10.0 mi SSE 13.8 mph 18.4 mph N/A   Clear
6:15 AM 60.3 °F 47.8 °F 64% 30.23 in 10.0 mi SSE 12.7 mph - N/A   Clear
6:35 AM 60.8 °F 48.7 °F 64% 30.24 in 10.0 mi SSE 11.5 mph - N/A   Clear
6:55 AM 61.7 °F 49.1 °F 63% 30.24 in 10.0 mi SSE 13.8 mph 19.6 mph N/A   Clear
7:15 AM 62.8 °F 49.1 °F 61% 30.24 in 10.0 mi SSE 15.0 mph - N/A   Clear
7:35 AM 63.9 °F 49.1 °F 59% 30.25 in 10.0 mi SE 15.0 mph 19.6 mph N/A   Clear
7:55 AM 65.3 °F 49.5 °F 57% 30.24 in 10.0 mi SSE 15.0 mph 20.7 mph N/A   Clear
8:15 AM 65.7 °F 49.6 °F 56% 30.26 in 10.0 mi SE 17.3 mph 21.9 mph N/A   Clear
8:35 AM 66.6 °F 49.5 °F 54% 30.26 in 10.0 mi SE 19.6 mph 24.2 mph N/A   Clear
8:55 AM 67.3 °F 49.6 °F 53% 30.26 in 10.0 mi SSE 19.6 mph 23.0 mph N/A   Clear
9:15 AM 67.5 °F 49.5 °F 52% 30.26 in 10.0 mi SSE 19.6 mph 26.5 mph N/A   Clear
9:35 AM 68.7 °F 49.3 °F 50% 30.26 in 10.0 mi SE 19.6 mph 25.3 mph N/A   Clear
9:55 AM 69.8 °F 49.1 °F 48% 30.26 in 10.0 mi SE 18.4 mph 24.2 mph N/A   Clear
10:15 AM 70.9 °F 48.6 °F 45% 30.26 in 10.0 mi SE 20.7 mph 26.5 mph N/A   Clear
10:35 AM 71.4 °F 48.2 °F 44% 30.25 in 10.0 mi SE 18.4 mph 24.2 mph N/A   Clear
10:55 AM 72.9 °F 47.7 °F 41% 30.25 in 10.0 mi SE 15.0 mph 21.9 mph N/A   Clear
11:15 AM 74.3 °F 46.8 °F 37% 30.24 in 10.0 mi ESE 16.1 mph 27.6 mph N/A   Clear
11:35 AM 75.2 °F 46.6 °F 36% 30.23 in 10.0 mi SE 16.1 mph 24.2 mph N/A   Clear
11:55 AM 76.8 °F 44.8 °F 32% 30.23 in 10.0 mi ESE 15.0 mph 25.3 mph N/A   Clear
12:15 PM 78.3 °F 43.9 °F 29% 30.22 in 10.0 mi ESE 15.0 mph 24.2 mph N/A   Clear
12:35 PM 78.4 °F 43.9 °F 29% 30.21 in 10.0 mi ESE 16.1 mph 25.3 mph N/A   Clear
12:55 PM 80.8 °F 43.7 °F 27% 30.20 in 10.0 mi ESE 18.4 mph 25.3 mph N/A   Clear
1:15 PM 80.8 °F 43.9 °F 27% 30.18 in 10.0 mi ESE 15.0 mph 26.5 mph N/A   Scattered Clouds
1:35 PM 82.0 °F 43.0 °F 25% 30.18 in 10.0 mi SE 19.6 mph 25.3 mph N/A   Scattered Clouds
1:55 PM 82.6 °F 41.4 °F 23% 30.16 in 10.0 mi SE 18.4 mph 25.3 mph N/A   Scattered Clouds
2:15 PM 83.8 °F 39.9 °F 21% 30.15 in 10.0 mi SE 12.7 mph 23.0 mph N/A   Clear
2:35 PM 84.4 °F 40.3 °F 21% 30.14 in 10.0 mi East 9.2 mph 21.9 mph N/A   Clear
2:55 PM 84.7 °F 39.9 °F 20% 30.14 in 10.0 mi SE 18.4 mph 24.2 mph N/A   Clear
3:15 PM 86.0 °F 37.2 °F 18% 30.12 in 10.0 mi ESE 10.4 mph 19.6 mph N/A   Clear
3:35 PM 88.2 °F 30.0 °F 12% 30.12 in 10.0 mi South 10.4 mph 27.6 mph N/A   Clear
3:55 PM 87.4 °F 31.6 °F 14% 30.11 in 10.0 mi South 8.1 mph 21.9 mph N/A   Clear
4:15 PM 90.0 °F 18.5 °F 7% 30.10 in 10.0 mi South 12.7 mph 24.2 mph N/A   Clear
4:35 PM 89.1 °F 10.0 °F 5% 30.09 in 10.0 mi WSW 15.0 mph 20.7 mph N/A   Clear
4:55 PM 89.6 °F 10.6 °F 5% 30.09 in 10.0 mi WSW 8.1 mph 18.4 mph N/A   Clear
5:15 PM 89.4 °F 10.6 °F 5% 30.08 in 10.0 mi SSW 13.8 mph 23.0 mph N/A   Clear
5:35 PM 90.1 °F 11.5 °F 5% 30.07 in 10.0 mi SW 11.5 mph 21.9 mph N/A   Clear
5:55 PM 88.0 °F 10.8 °F 6% 30.07 in 10.0 mi West 8.1 mph - N/A   Clear
6:15 PM 88.3 °F 9.9 °F 5% 30.06 in 10.0 mi WSW 12.7 mph - N/A   Clear
6:35 PM 87.8 °F 10.6 °F 6% 30.06 in 10.0 mi WSW 19.6 mph 24.2 mph N/A   Clear
6:55 PM 86.9 °F 10.2 °F 6% 30.06 in 10.0 mi West 8.1 mph 17.3 mph N/A   Clear
7:15 PM 86.7 °F 10.2 °F 6% 30.06 in 10.0 mi West 9.2 mph 18.4 mph N/A   Clear
7:35 PM 86.0 °F 9.0 °F 5% 30.06 in 10.0 mi West 8.1 mph - N/A   Clear
7:55 PM 84.4 °F 9.5 °F 6% 30.06 in 10.0 mi WNW 11.5 mph 20.7 mph N/A   Clear
8:15 PM 81.9 °F 10.4 °F 7% 30.06 in 10.0 mi WNW 8.1 mph - N/A   Clear
8:35 PM 75.4 °F 9.9 °F 8% 30.06 in 10.0 mi West 6.9 mph - N/A   Clear
8:55 PM 75.4 °F 11.1 °F 9% 30.06 in 10.0 mi West 8.1 mph - N/A   Clear
9:15 PM 73.6 °F 11.1 °F 9% 30.07 in 10.0 mi West 8.1 mph - N/A   Clear
9:35 PM 73.0 °F 11.3 °F 9% 30.07 in 10.0 mi West 10.4 mph - N/A   Clear
9:55 PM 73.0 °F 11.3 °F 9% 30.08 in 10.0 mi West 9.2 mph - N/A   Clear
10:15 PM 71.8 °F 11.3 °F 10% 30.09 in 10.0 mi WSW 9.2 mph - N/A   Clear
10:35 PM 72.0 °F 11.3 °F 10% 30.10 in 10.0 mi WSW 8.1 mph - N/A   Clear
10:55 PM 70.0 °F 11.1 °F 10% 30.11 in 10.0 mi SW 5.8 mph - N/A   Clear
11:15 PM 64.2 °F 10.0 °F 12% 30.11 in 10.0 mi Calm Calm - N/A   Clear
11:35 PM 59.2 °F 9.5 °F 14% 30.11 in 10.0 mi Calm Calm - N/A   Clear
11:55 PM 61.5 °F 10.2 °F 13% 30.11 in 10.0 mi Calm Calm - N/A   Clear